Location: Middlebury
(44.0153°N, 73.1678°W)
Time: 06:53:15
(UTC-04:00)

ISS - Visible Passes

Search period start: 14 May 2021 00:00
Search period end: 24 May 2021 00:00
Orbit: 417 x 422 km, 51.6° (Epoch: 14 May)

Date Brightness Start Highest point End Pass type
(mag) Time Alt. Az. Time Alt. Az. Time Alt. Az.
14 May -1.2 01:30:09 15° NW 01:31:56 22° N 01:34:38 10° NE visible
14 May -2.2 03:06:12 10° NW 03:09:23 37° NNE 03:12:34 10° E visible
14 May -3.3 04:43:01 10° WNW 04:46:13 40° SW 04:49:24 10° SSE visible
14 May -3.0 21:27:12 10° SSW 21:30:11 30° SE 21:33:11 10° ENE visible
14 May -2.6 23:03:39 10° W 23:06:54 44° NNW 23:10:10 10° NE visible
15 May -1.2 00:41:34 10° WNW 00:44:18 22° N 00:47:01 10° NE visible
15 May -1.7 02:18:47 10° NW 02:21:48 29° NNE 02:24:50 10° E visible
15 May -3.9 03:55:29 10° WNW 03:58:50 66° SW 04:02:11 10° SE visible
15 May -3.4 22:16:03 10° WSW 22:19:24 65° NNW 22:22:45 10° NE visible
15 May -1.3 23:53:51 10° WNW 23:56:39 24° N 23:59:29 10° NE visible
16 May -1.4 01:31:21 10° NW 01:34:13 25° NNE 01:37:05 10° ENE visible
16 May -3.7 03:08:01 10° WNW 03:11:25 78° NNE 03:14:47 10° ESE visible
16 May -2.0 04:45:47 10° W 04:47:50 15° SW 04:49:53 10° S visible
16 May -3.9 21:28:35 10° SW 21:31:56 82° SE 21:35:19 10° ENE visible
16 May -1.6 23:06:05 10° WNW 23:09:03 27° NNW 23:12:00 10° NE visible
17 May -1.2 00:43:50 10° NW 00:46:35 23° N 00:48:57 12° ENE visible
17 May -1.5 02:20:36 10° NW 02:26:38 14° ESE 02:27:14 10° ESE visible
17 May -2.7 04:00:12 24° SW 04:00:33 24° SW 04:03:21 10° SSE visible
17 May -1.9 22:18:21 10° W 22:21:27 33° NNW 22:24:34 10° NE visible
17 May -1.2 23:56:15 10° NW 23:58:56 22° N 00:01:34 10° NE visible
18 May -1.3 01:33:12 10° NW 01:34:28 20° NW 01:34:28 20° NW visible
18 May -2.5 21:30:39 10° W 21:33:54 44° NNW 21:37:09 10° NE visible
18 May -1.2 23:08:34 10° WNW 23:11:17 22° N 23:14:00 10° NE visible
19 May -1.6 00:45:47 10° NW 00:48:08 27° N 00:48:08 27° N visible
19 May -1.3 22:20:50 10° WNW 22:23:38 24° N 22:26:26 10° NE visible
19 May -1.6 23:58:19 10° NW 00:01:11 25° NNE 00:01:59 23° NE visible
20 May -1.5 21:33:04 10° WNW 21:36:01 27° NNW 21:38:57 10° NE visible
20 May -1.3 23:10:47 10° NW 23:13:32 22° N 23:15:54 12° ENE visible
21 May -1.4 00:47:34 10° NW 00:48:50 21° NW 00:48:50 21° NW visible
21 May -1.3 22:23:11 10° NW 22:25:53 22° N 22:28:34 10° NE visible
22 May -2.1 00:00:08 10° NW 00:02:47 35° N 00:02:47 35° N visible
22 May -1.3 21:35:30 10° WNW 21:38:13 22° N 21:40:55 10° NE visible
22 May -2.0 23:12:42 10° NW 23:15:44 30° NNE 23:16:47 24° NE visible
23 May -0.9 00:49:24 10° WNW 00:49:43 12° WNW 00:49:43 12° WNW visible
23 May -1.6 22:25:14 10° NW 22:28:06 25° NNE 22:30:48 11° ENE visible
